EW7827 Weather Reports


Display with metric or nautical units.
time (UTC)temp
F
wind
direction
speed
MPH
gust
MPH
rain 1hr
in
rain 24hr
in
rain mn
in
humidity
%
barometer
mb
20190219081519 20 67 2.0 5.0 0.00 0.00 0.00 84 1034.7
20190219080520 20 67 1.0 3.0 0.00 0.00 0.00 84 1034.9
20190219075519 20 67 2.0 4.0 0.00 0.00 0.00 84 1035.0
20190219074521 20 67 1.0 3.0 0.00 0.00 0.00 83 1035.3
20190219073519 20 67 1.0 3.0 0.00 0.00 0.00 83 1035.1
20190219072519 20 67 1.0 4.0 0.00 0.00 0.00 83 1034.9
20190219071518 20 0.0 2.0 0.00 0.00 0.00 83 1035.2
20190219070520 20 67 1.0 4.0 0.00 0.00 0.00 83 1035.1
20190219065522 20 67 2.0 5.0 0.00 0.00 0.00 84 1035.2
20190219064519 20 67 1.0 3.0 0.00 0.00 0.00 84 1035.1
20190219063520 20 0.0 3.0 0.00 0.00 0.00 83 1035.0
20190219062520 20 0.0 1.0 0.00 0.00 0.00 83 1035.1
20190219061519 20 0.0 1.0 0.00 0.00 0.00 83 1034.9
20190219060520 20 0.0 0.0 0.00 0.00 0.00 83 1034.8
20190219055520 20 0.0 1.0 0.00 0.00 0.00 83 1034.8
20190219054520 20 0.0 2.0 0.00 0.00 0.00 83 1034.7
20190219053520 20 0.0 0.0 0.00 0.00 0.00 82 1034.8
20190219052520 20 0.0 1.0 0.00 0.00 0.00 82 1034.8
20190219051520 20 0.0 0.0 0.00 0.00 0.00 81 1034.9
20190219050520 21 0.0 1.0 0.00 0.00 0.00 81 1034.6
20190219045520 21 0.0 1.0 0.00 0.00 0.00 81 1034.7
20190219044520 21 22 1.0 3.0 0.00 0.00 0.00 81 1034.7
20190219043520 21 22 1.0 2.0 0.00 0.00 0.00 80 1034.7
20190219042520 21 22 1.0 2.0 0.00 0.00 0.00 79 1034.6
20190219041520 22 0.0 1.0 0.00 0.00 0.00 79 1034.8
20190219040520 22 0.0 1.0 0.00 0.00 0.00 79 1035.0
20190219035520 22 0.0 1.0 0.00 0.00 0.00 78 1034.8
20190219034520 22 22 1.0 2.0 0.00 0.00 0.00 78 1034.8
20190219033520 22 22 1.0 3.0 0.00 0.00 0.00 78 1034.8
20190219032519 22 22 1.0 1.0 0.00 0.00 0.00 78 1034.7
20190219031520 22 45 2.0 4.0 0.00 0.00 0.00 78 1034.7
20190219030520 22 45 2.0 3.0 0.00 0.00 0.00 79 1034.6
20190219025519 22 45 2.0 4.0 0.00 0.00 0.00 79 1034.3
20190219024520 22 0.0 2.0 0.00 0.00 0.00 80 1034.2
20190219023520 22 45 1.0 2.0 0.00 0.00 0.00 79 1034.2
20190219022520 22 45 1.0 3.0 0.00 0.00 0.00 80 1034.3
20190219021519 22 22 1.0 3.0 0.00 0.00 0.00 80 1034.3
20190219020519 22 0.0 1.0 0.00 0.00 0.00 80 1034.3
20190219015520 22 0.0 3.0 0.00 0.00 0.00 79 1034.5
20190219014519 22 22 2.0 3.0 0.00 0.00 0.00 78 1034.2
20190219013520 22 22 2.0 4.0 0.00 0.00 0.00 78 1034.1
20190219012519 22 22 2.0 4.0 0.00 0.00 0.00 78 1034.1
20190219011520 22 22 2.0 4.0 0.00 0.00 0.00 78 1034.2
20190219010519 22 0 3.0 7.0 0.00 0.00 0.00 77 1034.1
20190219005519 22 22 2.0 3.0 0.00 0.00 0.00 77 1034.4
20190219004519 22 22 1.0 2.0 0.00 0.00 0.00 76 1034.5
20190219003519 23 22 2.0 3.0 0.00 0.00 0.00 76 1034.2
20190219002520 23 22 2.0 4.0 0.00 0.00 0.00 75 1034.0
20190219001520 23 0 2.0 4.0 0.00 0.00 0.00 75 1033.8
20190219000519 23 22 2.0 4.0 0.00 0.00 0.00 74 1033.8
20190218235519 24 337 2.0 5.0 0.00 0.00 0.00 73 1033.7
20190218234519 24 22 3.0 6.0 0.00 0.00 0.00 73 1033.8
20190218233519 24 0 2.0 4.0 0.00 0.00 0.00 72 1033.7
20190218232519 24 0 3.0 6.0 0.00 0.00 0.00 72 1033.6
20190218231519 24 22 3.0 9.0 0.00 0.00 0.00 72 1033.5
20190218230519 25 22 3.0 6.0 0.00 0.00 0.00 71 1033.2
20190218225519 25 22 4.0 9.0 0.00 0.00 0.00 71 1033.3
20190218224519 25 0 2.0 5.0 0.00 0.00 0.00 72 1033.4
20190218223519 25 22 3.0 5.0 0.00 0.00 0.00 71 1033.6
20190218222519 25 0 3.0 7.0 0.00 0.00 0.00 72 1033.5
20190218221519 25 0 3.0 7.0 0.00 0.00 0.00 72 1033.7
20190218220522 25 22 3.0 7.0 0.00 0.00 0.00 71 1033.7
20190218215519 26 337 3.0 6.0 0.00 0.00 0.00 71 1033.6
20190218214519 26 337 3.0 4.0 0.00 0.00 0.00 71 1033.7
20190218213519 26 337 3.0 11.0 0.00 0.00 0.00 72 1033.6
20190218212519 25 337 3.0 7.0 0.00 0.00 0.00 72 1033.4
20190218211519 25 22 4.0 9.0 0.00 0.00 0.00 71 1033.2
20190218210521 25 315 3.0 8.0 0.00 0.00 0.00 71 1033.1
20190218205519 25 315 3.0 9.0 0.00 0.00 0.00 72 1033.1
20190218204519 25 292 2.0 5.0 0.00 0.00 0.00 72 1033.3
20190218203520 24 22 3.0 6.0 0.00 0.00 0.00 72 1033.3
20190218202519 24 315 4.0 9.0 0.00 0.00 0.00 73 1033.4
20190218201520 24 292 4.0 9.0 0.00 0.00 0.00 73 1033.2
20190218200519 23 315 4.0 9.0 0.00 0.00 0.00 75 1033.3
20190218195519 23 315 4.0 9.0 0.00 0.00 0.00 74 1032.9
20190218194518 23 315 3.0 8.0 0.00 0.00 0.00 74 1033.1
20190218193521 23 337 3.0 8.0 0.00 0.00 0.00 75 1033.2
20190218192519 22 292 4.0 8.0 0.00 0.00 0.00 76 1033.3
20190218191519 22 292 4.0 9.0 0.00 0.00 0.00 77 1033.5
20190218190521 21 315 4.0 8.0 0.00 0.00 0.00 77 1033.6
20190218185521 21 337 3.0 8.0 0.00 0.00 0.00 77 1033.6
20190218184519 21 337 4.0 9.0 0.00 0.00 0.00 79 1033.6
20190218183521 21 315 3.0 7.0 0.00 0.00 0.00 79 1033.6
20190218182520 20 292 3.0 8.0 0.00 0.00 0.00 80 1033.8
20190218181522 20 0 3.0 7.0 0.00 0.00 0.00 79 1034.0
20190218180521 20 292 2.0 6.0 0.00 0.00 0.00 81 1034.2
20190218175520 20 0 4.0 10.0 0.00 0.00 0.00 81 1034.1
20190218174520 20 315 4.0 8.0 0.00 0.00 0.00 81 1034.2
20190218173520 19 337 3.0 10.0 0.00 0.00 0.00 82 1034.2
20190218172520 19 337 3.0 8.0 0.00 0.00 0.00 82 1033.9
20190218171520 18 292 3.0 5.0 0.00 0.00 0.00 83 1033.8
20190218170521 18 0 4.0 9.0 0.00 0.00 0.00 83 1033.6
20190218165520 18 337 3.0 7.0 0.00 0.00 0.00 83 1033.6
20190218164520 17 292 3.0 8.0 0.00 0.00 0.00 83 1033.5
20190218163520 17 337 3.0 8.0 0.00 0.00 0.00 83 1033.3
20190218162520 17 337 2.0 4.0 0.00 0.00 0.00 84 1033.4
20190218161521 16 292 2.0 3.0 0.00 0.00 0.00 84 1033.3
20190218160520 16 292 2.0 3.0 0.00 0.00 0.00 85 1033.1
20190218155520 15 315 2.0 5.0 0.00 0.00 0.00 85 1032.9
20190218154520 14 315 3.0 6.0 0.00 0.00 0.00 85 1032.6
20190218153521 14 315 3.0 6.0 0.00 0.00 0.00 85 1032.4
20190218152520 14 315 3.0 5.0 0.00 0.00 0.00 85 1032.0
20190218151521 14 337 3.0 8.0 0.00 0.00 0.00 85 1031.7
20190218150520 13 337 3.0 8.0 0.00 0.00 0.00 86 1031.5
20190218145521 13 315 2.0 6.0 0.00 0.00 0.00 86 1031.5
20190218144520 13 292 2.0 5.0 0.00 0.00 0.00 87 1031.4
20190218143520 13 337 3.0 7.0 0.00 0.00 0.00 87 1031.1
20190218142520 13 270 2.0 5.0 0.00 0.00 0.00 88 1031.2
20190218141520 12 315 3.0 7.0 0.00 0.00 0.00 88 1030.6
20190218140520 12 292 3.0 7.0 0.00 0.00 0.00 88 1030.2
20190218135520 11 315 3.0 8.0 0.00 0.00 0.00 89 1029.8
20190218134520 11 315 3.0 6.0 0.00 0.00 0.00 89 1030.2
20190218133520 11 270 2.0 3.0 0.00 0.00 0.00 89 1030.1
20190218132519 10 270 1.0 2.0 0.00 0.00 0.00 89 1030.2
20190218131519 10 270 1.0 3.0 0.00 0.00 0.00 89 1030.0
20190218130520 11 270 1.0 3.0 0.00 0.00 0.00 88 1029.7
20190218125521 11 270 2.0 4.0 0.00 0.00 0.00 88 1029.5
20190218124520 11 270 2.0 4.0 0.00 0.00 0.00 89 1029.6
20190218123520 11 292 2.0 4.0 0.00 0.00 0.00 89 1029.5
20190218122520 11 292 2.0 3.0 0.00 0.00 0.00 89 1029.2
20190218121520 11 315 1.0 3.0 0.00 0.00 0.00 88 1028.9
20190218120520 11 315 1.0 2.0 0.00 0.00 0.00 88 1028.7
20190218115520 11 315 1.0 3.0 0.00 0.00 0.00 88 1028.6
20190218114520 12 315 2.0 4.0 0.00 0.00 0.00 88 1028.4
20190218113519 12 292 1.0 3.0 0.00 0.00 0.00 88 1028.4
20190218112520 12 292 1.0 4.0 0.00 0.00 0.00 88 1028.3
20190218111519 12 292 2.0 3.0 0.00 0.00 0.00 88 1028.2
20190218110519 12 292 2.0 4.0 0.00 0.00 0.00 88 1028.2
20190218105520 12 292 1.0 3.0 0.00 0.00 0.00 88 1027.7
20190218104520 13 315 2.0 5.0 0.00 0.00 0.00 88 1027.1
20190218103519 13 315 2.0 4.0 0.00 0.00 0.00 88 1026.8
20190218102519 13 315 2.0 4.0 0.00 0.00 0.00 87 1026.7
20190218101520 13 315 2.0 4.0 0.00 0.00 0.00 87 1026.6
20190218100520 13 292 2.0 3.0 0.00 0.00 0.00 87 1026.6
20190218095519 13 292 2.0 4.0 0.00 0.00 0.00 87 1026.5
20190218094519 13 315 1.0 3.0 0.00 0.00 0.00 87 1026.4
20190218093520 14 337 2.0 4.0 0.00 0.00 0.00 87 1026.2
20190218092520 14 315 2.0 6.0 0.00 0.00 0.00 87 1025.9
20190218091519 14 315 2.0 5.0 0.00 0.00 0.00 87 1025.8
20190218090519 14 337 4.0 9.0 0.00 0.00 0.00 88 1025.9
20190218085519 14 315 2.0 5.0 0.00 0.00 0.00 87 1025.9
20190218084519 14 315 1.0 2.0 0.00 0.00 0.00 87 1025.7
20190218083519 14 315 1.0 3.0 0.00 0.00 0.00 87 1025.6
20190218082519 14 315 1.0 2.0 0.00 0.00 0.00 86 1025.8